| time (UTC) | temp F | wind direction | speed MPH | gust MPH | rain 1hr in | rain 24hr in | rain mn in | humidity % | barometer mb |
| 20260904144545 | 74 | 295 | 0.0 | 2.0 | 0.00 | 0.00 | 0.00 | 91 | 1008.2 |
| 20260904143041 | 72 | 103 | 0.0 | 1.0 | 0.00 | 0.00 | 0.00 | 94 | 1008.2 |
| 20260904141553 | 71 | 12 | 0.0 | 2.0 | 0.00 | 0.00 | 0.00 | 96 | 1008.4 |
| 20260904140037 | 70 | 229 | 0.0 | 1.0 | 0.00 | 0.00 | 0.00 | 98 | 1008.4 |
| 20260904134531 | 68 | 238 | 0.0 | 3.0 | 0.00 | 0.00 | 0.00 | 99 | 1008.4 |
| 20260904133030 | 67 | 135 | 0.0 | 2.0 | 0.00 | 0.00 | 0.00 | 99 | 1008.5 |
| 20260904131526 | 67 | 238 | 0.0 | 1.0 | 0.00 | 0.00 | 0.00 | 99 | 1008.7 |
| 20260904130025 | 66 | 161 | 0.0 | 0.0 | 0.00 | 0.00 | 0.00 | 99 | 1008.6 |
| 20260904124523 | 66 | 176 | 0.0 | 0.0 | 0.00 | 0.01 | 0.00 | 99 | 1008.7 |
| 20260904123022 | 65 | 210 | 0.0 | 1.0 | 0.00 | 0.01 | 0.00 | 99 | 1008.7 |
| 20260904121521 | 65 | 211 | 0.0 | 0.0 | 0.00 | 0.01 | 0.00 | 99 | 1008.7 |
| 20260904120019 | 65 | 233 | 0.0 | 1.0 | 0.00 | 0.01 | 0.00 | 99 | 1008.8 |
| 20260904114535 | 65 | 194 | 0.0 | 0.0 | 0.00 | 0.03 | 0.00 | 99 | 1008.7 |
| 20260904113018 | 64 | 231 | 0.0 | 1.0 | 0.00 | 0.03 | 0.00 | 99 | 1008.6 |
| 20260904111517 | 64 | 222 | 0.0 | 0.0 | 0.00 | 0.03 | 0.00 | 99 | 1008.6 |
| 20260904110023 | 64 | 222 | 0.0 | 0.0 | 0.00 | 0.03 | 0.00 | 99 | 1008.5 |
| 20260904104516 | 64 | 222 | 0.0 | 0.0 | 0.00 | 0.12 | 0.00 | 99 | 1008.4 |
| 20260904103016 | 64 | 222 | 0.0 | 0.0 | 0.00 | 0.12 | 0.00 | 99 | 1008.3 |
| 20260904101519 | 64 | 222 | 0.0 | 0.0 | 0.00 | 0.12 | 0.00 | 99 | 1008.3 |
| 20260904100015 | 64 | 222 | 0.0 | 0.0 | 0.00 | 0.12 | 0.00 | 99 | 1008.2 |
| 20260904094514 | 64 | 222 | 0.0 | 0.0 | 0.00 | 0.20 | 0.00 | 99 | 1008.3 |
| 20260904093014 | 64 | 150 | 0.0 | 0.0 | 0.00 | 0.20 | 0.00 | 99 | 1008.3 |
| 20260904091513 | 64 | 214 | 0.0 | 2.0 | 0.00 | 0.20 | 0.00 | 99 | 1008.3 |
| 20260904090014 | 64 | 274 | 0.0 | 1.0 | 0.00 | 0.20 | 0.00 | 99 | 1008.3 |
| 20260904084512 | 64 | 274 | 0.0 | 2.0 | 0.00 | 0.30 | 0.00 | 99 | 1008.2 |
| 20260904083011 | 64 | 179 | 0.0 | 0.0 | 0.00 | 0.30 | 0.00 | 99 | 1008.4 |
| 20260904081509 | 64 | 270 | 0.0 | 0.0 | 0.00 | 0.30 | 0.00 | 99 | 1008.5 |
| 20260904080009 | 64 | 270 | 0.0 | 0.0 | 0.00 | 0.30 | 0.00 | 99 | 1008.4 |
| 20260904074510 | 64 | 270 | 0.0 | 0.0 | 0.00 | 0.30 | 0.00 | 98 | 1008.4 |
| 20260904073006 | 64 | 270 | 0.0 | 0.0 | 0.00 | 0.30 | 0.00 | 98 | 1008.5 |
| 20260904071520 | 64 | 270 | 0.0 | 0.0 | 0.00 | 0.30 | 0.00 | 98 | 1008.8 |
| 20260904070004 | 64 | 270 | 0.0 | 0.0 | 0.00 | 0.30 | 0.00 | 98 | 1008.7 |
| 20260904064503 | 64 | 270 | 0.0 | 0.0 | 0.00 | 0.30 | 0.00 | 98 | 1008.9 |
| 20260904063002 | 64 | 270 | 0.0 | 0.0 | 0.00 | 0.30 | 0.00 | 98 | 1009.0 |
| 20260904061603 | 64 | 270 | 0.0 | 0.0 | 0.00 | 0.30 | 0.00 | 98 | 1009.2 |
| 20260904060113 | 64 | 270 | 0.0 | 0.0 | 0.00 | 0.30 | 0.00 | 98 | 1009.4 |
| 20260904054601 | 64 | 270 | 0.0 | 0.0 | 0.00 | 0.30 | 0.00 | 98 | 1009.6 |
| 20260904053057 | 64 | 270 | 0.0 | 0.0 | 0.00 | 0.30 | 0.00 | 98 | 1009.7 |
| 20260904051555 | 64 | 270 | 0.0 | 0.0 | 0.00 | 0.30 | 0.00 | 98 | 1010.0 |
| 20260904050054 | 64 | 270 | 0.0 | 2.0 | 0.00 | 0.30 | 0.00 | 98 | 1009.7 |
| 20260904044555 | 64 | 79 | 0.0 | 0.0 | 0.00 | 0.30 | 0.00 | 98 | 1009.8 |
| 20260904043050 | 64 | 79 | 0.0 | 0.0 | 0.00 | 0.30 | 0.00 | 98 | 1010.1 |
| 20260904041548 | 65 | 79 | 0.0 | 0.0 | 0.00 | 0.30 | 0.00 | 98 | 1010.1 |
| 20260904040046 | 65 | 79 | 0.0 | 0.0 | 0.00 | 0.30 | 0.00 | 98 | 1010.3 |
| 20260904034559 | 65 | 79 | 0.0 | 0.0 | 0.00 | 0.30 | 0.30 | 98 | 1010.5 |
| 20260904033046 | 65 | 79 | 0.0 | 0.0 | 0.00 | 0.30 | 0.30 | 98 | 1010.6 |
| 20260904031544 | 64 | 79 | 0.0 | 0.0 | 0.00 | 0.30 | 0.30 | 98 | 1010.6 |
| 20260904030044 | 64 | 6 | 0.0 | 0.0 | 0.00 | 0.30 | 0.30 | 97 | 1010.7 |
| 20260904024544 | 64 | 108 | 0.0 | 0.0 | 0.00 | 0.30 | 0.30 | 97 | 1010.5 |
| 20260904023044 | 64 | 108 | 0.0 | 0.0 | 0.00 | 0.30 | 0.30 | 97 | 1010.4 |
| 20260904021547 | 64 | 108 | 0.0 | 0.0 | 0.00 | 0.30 | 0.30 | 97 | 1010.6 |
| 20260904020043 | 64 | 108 | 0.0 | 0.0 | 0.00 | 0.30 | 0.30 | 97 | 1010.8 |
| 20260904014546 | 64 | 108 | 0.0 | 0.0 | 0.00 | 0.30 | 0.30 | 97 | 1010.8 |
| 20260904013042 | 64 | 108 | 0.0 | 0.0 | 0.00 | 0.30 | 0.30 | 96 | 1011.0 |
| 20260904011543 | 64 | 108 | 0.0 | 0.0 | 0.00 | 0.30 | 0.30 | 96 | 1011.1 |
| 20260904010050 | 64 | 108 | 0.0 | 0.0 | 0.00 | 0.30 | 0.30 | 96 | 1010.9 |
| 20260904004556 | 65 | 108 | 0.0 | 0.0 | 0.00 | 0.30 | 0.30 | 95 | 1010.8 |
| 20260904003041 | 65 | 108 | 0.0 | 0.0 | 0.00 | 0.30 | 0.30 | 95 | 1010.5 |
| 20260904001539 | 65 | 108 | 0.0 | 0.0 | 0.00 | 0.30 | 0.30 | 94 | 1010.4 |
| 20260904000051 | 66 | 108 | 0.0 | 0.0 | 0.00 | 0.30 | 0.30 | 93 | 1010.5 |
| 20260903234543 | 67 | 108 | 0.0 | 0.0 | 0.00 | 0.30 | 0.30 | 92 | 1010.1 |
| 20260903233038 | 68 | 108 | 0.0 | 0.0 | 0.00 | 0.30 | 0.30 | 91 | 1010.0 |
| 20260903231538 | 69 | 108 | 0.0 | 0.0 | 0.00 | 0.30 | 0.30 | 89 | 1010.2 |
| 20260903230039 | 71 | 108 | 0.0 | 1.0 | 0.00 | 0.30 | 0.30 | 87 | 1010.1 |
| 20260903224538 | 74 | 302 | 0.0 | 0.0 | 0.00 | 0.30 | 0.30 | 84 | 1010.0 |
| 20260903223041 | 77 | 302 | 0.0 | 0.0 | 0.00 | 0.30 | 0.30 | 80 | 1010.6 |
| 20260903221533 | 78 | 302 | 0.0 | 1.0 | 0.00 | 0.30 | 0.30 | 81 | 1010.5 |
| 20260903220040 | 79 | 302 | 0.0 | 0.0 | 0.00 | 0.30 | 0.30 | 80 | 1010.5 |
| 20260903214535 | 79 | 302 | 0.0 | 0.0 | 0.00 | 0.30 | 0.30 | 81 | 1010.4 |
| 20260903213038 | 79 | 302 | 0.0 | 0.0 | 0.00 | 0.30 | 0.30 | 81 | 1010.5 |
| 20260903211556 | 78 | 302 | 0.0 | 0.0 | 0.00 | 0.30 | 0.30 | 81 | 1010.5 |
| 20260903210030 | 79 | 302 | 0.0 | 0.0 | 0.00 | 0.30 | 0.30 | 78 | 1010.5 |
| 20260903204528 | 79 | 267 | 0.0 | 1.0 | 0.00 | 0.30 | 0.30 | 79 | 1010.5 |
| 20260903203026 | 78 | 172 | 0.0 | 0.0 | 0.00 | 0.30 | 0.30 | 81 | 1010.6 |
| 20260903201522 | 76 | 280 | 0.0 | 1.0 | 0.00 | 0.30 | 0.30 | 83 | 1010.7 |
| 20260903200020 | 76 | 23 | 0.0 | 1.0 | 0.00 | 0.30 | 0.30 | 84 | 1010.8 |
| 20260903194517 | 75 | 139 | 0.0 | 0.0 | 0.00 | 0.30 | 0.30 | 87 | 1011.0 |
| 20260903193012 | 73 | 351 | 0.0 | 0.0 | 0.00 | 0.30 | 0.30 | 87 | 1010.9 |
| 20260903191514 | 72 | 351 | 0.0 | 0.0 | 0.00 | 0.30 | 0.30 | 90 | 1011.1 |
| 20260903190004 | 72 | 300 | 0.0 | 0.0 | 0.00 | 0.30 | 0.30 | 91 | 1011.5 |
| 20260903184607 | 71 | 247 | 0.0 | 1.0 | 0.00 | 0.30 | 0.30 | 92 | 1011.5 |
| 20260903183059 | 70 | 231 | 0.0 | 0.0 | 0.00 | 0.30 | 0.30 | 93 | 1011.5 |
| 20260903181557 | 70 | 231 | 0.0 | 0.0 | 0.00 | 0.30 | 0.30 | 93 | 1011.9 |
| 20260903180106 | 70 | 231 | 0.0 | 0.0 | 0.00 | 0.30 | 0.30 | 93 | 1012.1 |
| 20260903174610 | 70 | 231 | 0.0 | 0.0 | 0.00 | 0.30 | 0.30 | 94 | 1012.3 |
| 20260903173056 | 69 | 231 | 0.0 | 0.0 | 0.00 | 0.30 | 0.30 | 94 | 1012.0 |
| 20260903171551 | 69 | 133 | 0.0 | 1.0 | 0.00 | 0.30 | 0.30 | 96 | 1011.8 |
| 20260903170106 | 68 | 149 | 0.0 | 0.0 | 0.00 | 0.30 | 0.30 | 96 | 1012.0 |
| 20260903164553 | 68 | 96 | 0.0 | 0.0 | 0.00 | 0.30 | 0.30 | 96 | 1012.0 |
| 20260903163047 | 68 | 335 | 0.0 | 1.0 | 0.00 | 0.30 | 0.30 | 97 | 1012.0 |
| 20260903161544 | 67 | 157 | 0.0 | 0.0 | 0.00 | 0.30 | 0.30 | 97 | 1012.0 |
| 20260903160042 | 67 | 157 | 0.0 | 0.0 | 0.00 | 0.30 | 0.30 | 97 | 1012.2 |
| 20260903154540 | 67 | 158 | 0.0 | 0.0 | 0.00 | 0.30 | 0.30 | 97 | 1012.5 |
| 20260903153044 | 66 | 230 | 0.0 | 1.0 | 0.00 | 0.30 | 0.30 | 98 | 1012.6 |
| 20260903151547 | 66 | 230 | 0.0 | 0.0 | 0.00 | 0.30 | 0.30 | 98 | 1012.7 |
| 20260903150037 | 66 | 230 | 0.0 | 0.0 | 0.00 | 0.30 | 0.30 | 98 | 1012.7 |